Regional Weather Roundup
Issued by NWS

Home | Current Version | Previous Version | Graphics & Text | Print | Product List | Glossary On
Versions: 1 2 3 4 5 6 7 8 9 10 11 12 13 14 15 16 17 18 19 20 21 22 23 24 25 26 27 28 29 30 31 32 33 34 35 36 37 38 39 40 41 42 43 44 45 46 47 48 49 50
000
ASUS45 KSLC 191810
RWRUT

UTAH REGIONAL WEATHER ROUNDUP
NATIONAL WEATHER SERVICE SALT LAKE CITY UT
1200 PM MDT TUE SEP 19 2017

UTZ001>011-023>025-191900-

NORTHERN UTAH

CITY           SKY/WX    TMP DP  RH WIND       PRES   REMARKS
BRIGHAM CITY   CLOUDY    49  37  62 SE8       29.95R
HILL AFB       LGT RAIN  47  37  66 NE9       29.95R
LOGAN          CLOUDY    48  40  73 S8        29.94R
OGDEN          LGT RAIN  49  38  65 NE9       29.94S
SALT LAKE CITY CLOUDY    54  44  69 CALM      29.94R
TOOELE VALLEY  PTSUNNY   54  43  66 CALM      29.95S
WENDOVER       CLOUDY    59  36  42 SE8       29.91
HEBER CITY     DRIZZLE   45  39  81 E13       29.93R
WEST JORDAN    PTSUNNY   52  46  80 NE7       29.95S

$$

UTZ011>015-024>027-191900-

CENTRAL/NORTHEAST UTAH

CITY           SKY/WX    TMP DP  RH WIND       PRES   REMARKS
PROVO AIRPORT  LGT RAIN  51  44  77 NW8       29.95R
MOAB/CANYONLAN MOSUNNY   78  27  15 S23G29    29.79S
DELTA          SUNNY     66  36  32 NW14      29.87S
PRICE          PTSUNNY   70  33  25 W18       29.83S
ROOSEVELT      CLOUDY    68  36  30 W28G33    29.79S
VERNAL         CLOUDY    69  40  34 W21G26    29.76R

$$

UTZ013>016-019>022-027-191900-

SOUTHERN UTAH

CITY           SKY/WX    TMP DP  RH WIND       PRES   REMARKS
BRYCE CANYON   MOSUNNY   62  37  39 SW18G25   30.05F
CEDAR CITY     MOSUNNY   71  37  28 S24G32    29.93F
MILFORD        SUNNY     72  36  26 SW29G37   29.89F
ST GEORGE      CLOUDY    80  42  25 W10       29.85F
HANKSVILLE     MOSUNNY   77  32  19 SW24G33   29.84S
BLANDING         N/A     69  24  19 S20G26    30.06F

$$

REGIONAL REPORTS     COLORADO/ARIZONA

CITY           SKY/WX    TMP DP  RH WIND       PRES   REMARKS
CRAIG, CO      MOSUNNY   71  20  14 SW28G41   29.79F
GRAND JUNCTION CLOUDY    77  24  14 SW12      29.81F
RIFLE, CO      SUNNY     74  21  13 W20G28    29.82F
MONTROSE, CO   CLOUDY    74  21  13 SW15G22   29.92F
CORTEZ, CO     CLOUDY    71  24  17 SW16      30.04F
PAGE, AZ       SUNNY     77  34  21 SW12G21   29.89F
GRAND CANYON   SUNNY     67  32  27 SW21G31   30.10F
KINGMAN, AZ    SUNNY     80  41  24 S20G29    29.93F
FLAGSTAFF, AZ  MOSUNNY   64  22  20 SW28G39   30.15S

$$

REGIONAL REPORTS    NEVADA/IDAHO/WYOMING

CITY           SKY/WX    TMP DP  RH WIND       PRES   REMARKS
LAS VEGAS, NV  MOSUNNY   81  42  25 S8G21     29.81S
ELY, NY        MOSUNNY   63  28  26 MISG      29.95S
ELKO, NV       MOSUNNY   58  24  27 W21G32    29.96R
POCATELLO, ID  CLOUDY    51  39  63 W23G32    29.90R
BURLEY, ID     PTSUNNY   49  39  68 SW10      29.92S
FORT BRIDGER,  CLOUDY    36  36 100 W17       30.00R WCI  26
EVANSTON, WY   CLOUDY    37  36  96 W9        29.97R WCI  30
ROCK SPRINGS,  LGT RAIN  36  34  92 W18G26    29.93S WCI  26

$$



USA.gov is the U.S. government's official web portal to all federal, state and local government web resources and services.